{"data":{"norad_id":47652,"epoch":"2026-08-30T13:08:37.868064Z","epoch_age_seconds":1835921,"freshness":"OLD","line1":"1 47652U 21012AJ  26242.54766051  .06406906  12274-4  90583-3 0  9999","line2":"2 47652  53.1391 291.2671 0007122 340.0766  20.0000 16.34072126307334","mean_motion":16.34072126,"eccentricity":0.0007122,"inclination_deg":53.1391,"raan_deg":291.2671,"arg_perigee_deg":340.0766,"mean_anomaly_deg":20,"bstar":0.00090583,"rev_number":30733,"period_min":88.123405147662,"perigee_km":176.94726216912,"apogee_km":186.29097878713,"semimajor_km":6559.7561204781,"source":"CELESTRAK","updated_at":"2026-08-31T09:02:10.485412Z"}}